Alexandria, Egypt

3:24 AM EET on September 23, 2017 (GMT +0200)
Alexandria

Weather History for HEAX - February, 2013

Change the Weather History Date:

Sunday, February 10, 2013

  Actual Average Record
Temperature  
Mean Temperature 55 °F -  
Max Temperature 64 °F 64 °F 71 °F (2008)
Min Temperature 46 °F 49 °F 39 °F (2012)
Degree Days  
Heating Degree Days 10    
Growing Degree Days 5 (Base 50)    
Moisture  
Dew Point 46 °F    
Average Humidity 72    
Maximum Humidity 93    
Minimum Humidity 43    
Precipitation  
Precipitation 0.00 in 0.03 in - ()
Sea Level Pressure  
Sea Level Pressure 30.06 in    
Wind  
Wind Speed 4 mph ()    
Max Wind Speed 12 mph    
Max Gust Speed -    
Visibility 5.5 miles    
Events      
Averages and records for this station are not official NWS values.
T = Trace of Precipitation, MM = Missing Value Source: Averaged Metar Reports

Daily Weather History Graph

Daily Weather History Graph

Search for Another Location

Airport or City:

Trip Planner

Search our weather history database for the weather conditions in past years. The results will help you decide how hot, cold, wet, or windy it might be!

Date:

Astronomy

Feb. 10, 2013 Rise Set
Actual Time 6:45 AM EET 5:43 PM EET
Civil Twilight 6:20 AM EET 6:08 PM EET
Nautical Twilight 5:52 AM EET 6:37 PM EET
Astronomical Twilight 5:24 AM EET 7:05 PM EET
Moon 6:26 AM EET (2/10) 6:06 PM EET (2/10)
Length of Visible Light 11h 47m
Length of Day
10h 57m
New Moon, 0% of the Moon is Illuminated
Feb 10
New Moon
Feb 17
First Quarter
Feb 25
Full
Mar 4
Last Quarter
Mar 11
New

Hourly Weather History & Observations

Time (EET) Temp. Windchill Dew Point Humidity Pressure Visibility Wind Dir Wind Speed Gust Speed Precip Events Conditions
12:00 AM 51.8 °F - 44.6 °F 76% 30.09 in - NNW 4.6 mph - N/A   Clear
1:00 AM 48.2 °F - 44.6 °F 87% 30.09 in - NNE 3.5 mph - N/A   Clear
2:00 AM 48 °F - 45 °F 86% 30.08 in 6 mi NE 3.5 mph - -  
2:00 AM 48.2 °F - 44.6 °F 87% 30.06 in - NE 3.5 mph - N/A   Clear
3:00 AM 48.2 °F - 44.6 °F 87% 30.09 in - NNE 3.5 mph - N/A   Clear
4:00 AM 46.4 °F 45.2 °F 44.6 °F 93% 30.09 in - NNE 3.5 mph - N/A   Clear
5:00 AM 46.4 °F - 44.6 °F 93% 30.06 in - Calm Calm - N/A   Clear
6:00 AM 46.4 °F - 44.6 °F 93% 30.09 in - Calm Calm - N/A   Clear
7:00 AM 46.4 °F - 44.6 °F 93% 30.06 in 3.7 mi Calm Calm - N/A   Unknown
8:00 AM 49 °F - 46 °F 87% 30.09 in 4 mi ESE 3.5 mph - -   Mist
8:00 AM 48.2 °F - 46.4 °F 93% 30.09 in 3.7 mi ESE 3.5 mph - N/A   Unknown
9:00 AM 53.6 °F - 50.0 °F 88% 30.09 in 3.7 mi ESE 4.6 mph - N/A   Unknown
10:00 AM 55.4 °F - 51.8 °F 88% 30.09 in 6.2 mi ESE 4.6 mph - N/A   Scattered Clouds
11:00 AM 64.4 °F - 46.4 °F 52% 30.06 in - East 4.6 mph - N/A   Clear
12:00 PM 64.4 °F - 44.6 °F 49% 30.04 in - NNW 9.2 mph - N/A   Clear
1:00 PM 64.4 °F - 48.2 °F 56% 30.04 in - NW 11.5 mph - N/A   Clear
2:00 PM 64 °F - 47 °F 43% 30.02 in 6 mi NNW 11.5 mph - -   Scattered Clouds
2:00 PM 64.4 °F - 46.4 °F 52% 30.01 in 6.2 mi NNW 11.5 mph - N/A   Partly Cloudy
3:00 PM 60.8 °F - 42.8 °F 52% 30.01 in 6.2 mi West 9.2 mph - N/A   Scattered Clouds
4:00 PM 62.6 °F - 48.2 °F 59% 30.01 in 6.2 mi NW 9.2 mph - N/A   Scattered Clouds
5:00 PM 60.8 °F - 50.0 °F 68% 30.01 in 6.2 mi NW 8.1 mph - N/A   Scattered Clouds
6:00 PM 59.0 °F - 44.6 °F 59% 30.04 in 6.2 mi WNW 8.1 mph - N/A   Partly Cloudy
7:00 PM 57.2 °F - 42.8 °F 59% 30.04 in 6.2 mi WNW 6.9 mph - N/A   Partly Cloudy
8:00 PM 57 °F - 44 °F 51% 30.04 in 6 mi WNW 5.8 mph - -   Scattered Clouds
8:00 PM 57.2 °F - 44.6 °F 63% 30.04 in 6.2 mi WNW 5.8 mph - N/A   Partly Cloudy
9:00 PM 55.4 °F - 42.8 °F 63% 30.04 in - WNW 4.6 mph - N/A   Clear
10:00 PM 53.6 °F - 44.6 °F 72% 30.04 in - WNW 4.6 mph - N/A   Clear
11:00 PM 51.8 °F - 44.6 °F 76% 30.04 in - WSW 5.8 mph - N/A   Clear